Weather History for KLIC - April, 2013

Change the Weather History Date:

Tuesday, April 9, 2013

  Actual Average Record
Temperature  
Mean Temperature 16 °F -  
Max Temperature 24 °F - 75 °F (2011)
Min Temperature 7 °F - 7 °F (2013)
Degree Days  
Heating Degree Days 49    
Month to date heating degree days 223  
Cooling Degree Days 0    
Month to date cooling degree days 0  
Moisture  
Dew Point 10 °F    
Average Humidity 90    
Maximum Humidity 96    
Minimum Humidity 83    
Precipitation  
Precipitation 0.02 in - 0.18 in (2004)
Month to date precipitation 0.02  
Year to date precipitation 2.12  
Sea Level Pressure  
Sea Level Pressure 29.96 in    
Wind  
Wind Speed 32 mph (NNW)    
Max Wind Speed 44 mph    
Max Gust Speed 54 mph    
Visibility 2 miles    
Events Fog , Snow    
T = Trace of Precipitation, MM = Missing Value Source: NWS Daily Summary

Daily Weather History Graph

Daily Weather History Graph

Search for Another Location

Airport or City:

Trip Planner

Search our weather history database for the weather conditions in past years. The results will help you decide how hot, cold, wet, or windy it might be!

Date:

Astronomy

Apr. 09, 2013 Rise Set
Actual Time 6:26 AM MDT 7:26 PM MDT
Civil Twilight 5:58 AM MDT 7:54 PM MDT
Nautical Twilight 5:26 AM MDT 8:26 PM MDT
Astronomical Twilight 4:52 AM MDT 9:00 PM MDT
Moon 5:50 AM MDT (4/9) 7:04 PM MDT (4/9)
Length of Visible Light 13h 55m
Length of Day
13h 00m
Waning Crescent, 0% of the Moon is Illuminated
Apr 9
Waning Crescent
Apr 10
New
Apr 18
First Quarter
Apr 25
Full
May 2
Last Quarter

Hourly Weather History & Observations

Time (MDT) Temp. Windchill Dew Point Humidity Pressure Visibility Wind Dir Wind Speed Gust Speed Precip Events Conditions
12:55 AM 24.1 °F 6.6 °F 23.0 °F 96% 29.69 in 5.0 mi NW 31.1 mph 47.2 mph N/A   Overcast
1:55 AM 21.0 °F 0.5 °F 19.0 °F 92% 29.65 in 9.0 mi NNW 40.3 mph 49.5 mph N/A   Overcast
2:07 AM 21.2 °F 0.9 °F 19.4 °F 93% 29.73 in 7.0 mi NNW 39.1 mph 46.0 mph N/A   Overcast
2:55 AM 19.0 °F -1.6 °F 17.1 °F 92% 29.69 in 4.0 mi NNW 36.8 mph 46.0 mph 0.00 in   Overcast
3:29 AM 17.6 °F -3.6 °F 15.8 °F 93% 29.81 in 2.0 mi NNW 36.8 mph 46.0 mph 0.00 in Snow Light Snow
3:39 AM 17.6 °F -2.2 °F 15.8 °F 93% 29.79 in 5.0 mi North 31.1 mph 50.6 mph 0.00 in Snow Light Snow
3:44 AM 17.6 °F -2.5 °F 15.8 °F 93% 29.79 in 5.0 mi NNW 32.2 mph 50.6 mph 0.00 in Snow Light Snow
3:55 AM 18.0 °F -1.4 °F 16.0 °F 92% 29.75 in 3.0 mi NNW 29.9 mph 43.7 mph 0.00 in Snow Light Snow
4:00 AM 17.6 °F -3.6 °F 15.8 °F 93% 29.81 in 2.5 mi NNW 36.8 mph 44.9 mph 0.00 in Snow Light Snow
4:02 AM 17.6 °F -3.1 °F 15.8 °F 93% 29.81 in 3.0 mi NNW 34.5 mph 44.9 mph 0.00 in Snow Light Snow
4:21 AM 15.8 °F -5.0 °F 14.0 °F 93% 29.80 in 2.5 mi NNW 32.2 mph 47.2 mph 0.00 in Snow Light Snow
4:30 AM 15.8 °F -5.2 °F 12.2 °F 86% 29.79 in 3.0 mi North 33.4 mph 46.0 mph 0.00 in Snow Light Snow
4:40 AM 15.8 °F -6.6 °F 12.2 °F 86% 29.78 in 3.0 mi NNW 39.1 mph 49.5 mph 0.00 in Snow Light Snow
4:42 AM 15.8 °F -7.0 °F 12.2 °F 86% 29.77 in 2.5 mi North 41.4 mph 50.6 mph 0.00 in Snow Light Snow
4:53 AM 15.8 °F -6.1 °F 12.2 °F 86% 29.79 in 3.0 mi North 36.8 mph 50.6 mph 0.00 in Snow Light Snow
4:55 AM 14.0 °F -8.0 °F 12.0 °F 92% 29.77 in 3.0 mi NNW 34.5 mph 50.6 mph 0.00 in Snow Light Snow
5:20 AM 15.8 °F -6.3 °F 12.2 °F 86% 29.79 in 1.8 mi NNW 38.0 mph 47.2 mph 0.00 in Snow Light Snow
5:27 AM 14.0 °F -9.1 °F 10.4 °F 86% 29.81 in 2.5 mi North 39.1 mph 50.6 mph 0.00 in Snow Light Snow
5:33 AM 12.2 °F -11.3 °F 10.4 °F 92% 29.80 in 4.0 mi North 38.0 mph 48.3 mph 0.00 in Snow Light Snow
5:55 AM 12.9 °F -7.3 °F 10.0 °F 88% 29.83 in 2.0 mi NNW 26.5 mph 46.0 mph 0.00 in Snow Light Snow
6:03 AM 12.2 °F -9.9 °F 10.4 °F 92% 29.86 in 1.8 mi North 32.2 mph 38.0 mph 0.00 in Snow Light Snow
6:10 AM 12.2 °F -11.0 °F 8.6 °F 85% 29.86 in 2.0 mi NNW 36.8 mph 46.0 mph 0.00 in Snow Light Snow
6:29 AM 12.2 °F -10.2 °F 10.4 °F 92% 29.88 in 2.0 mi North 33.4 mph 41.4 mph 0.00 in Snow Light Snow
6:50 AM 12.2 °F -9.9 °F 8.6 °F 85% 29.87 in 1.2 mi North 32.2 mph 42.6 mph 0.00 in Snow Light Snow
6:55 AM 12.0 °F -10.4 °F 9.0 °F 88% 29.85 in 1.0 mi NNW 33.4 mph 42.6 mph 0.00 in Snow Light Snow
7:35 AM 10.4 °F -12.0 °F 8.6 °F 92% 29.90 in 1.2 mi North 31.1 mph 47.2 mph 0.00 in Snow Light Snow
7:55 AM 12.0 °F -9.5 °F 9.0 °F 88% 29.90 in 1.8 mi North 29.9 mph 38.0 mph 0.00 in Snow Light Snow
8:12 AM 10.4 °F -11.7 °F 8.6 °F 92% 29.90 in 2.5 mi North 29.9 mph 41.4 mph 0.00 in Snow Light Snow
8:24 AM 12.2 °F -9.6 °F 8.6 °F 85% 29.89 in 2.0 mi North 31.1 mph 40.3 mph 0.00 in Snow Light Snow
8:37 AM 12.2 °F -10.5 °F 8.6 °F 85% 29.91 in 1.5 mi NNW 34.5 mph 43.7 mph 0.00 in Snow Light Snow
8:46 AM 12.2 °F -9.6 °F 8.6 °F 85% 29.91 in 1.2 mi NNW 31.1 mph 41.4 mph 0.00 in Snow Light Snow
8:53 AM 12.2 °F -9.3 °F 8.6 °F 85% 29.90 in 1.5 mi NNW 29.9 mph 40.3 mph 0.00 in Snow Light Snow
8:55 AM 12.0 °F -10.7 °F 8.1 °F 84% 29.95 in 1.5 mi NNW 34.5 mph 42.6 mph 0.00 in Snow Light Snow
9:04 AM 12.2 °F -9.6 °F 8.6 °F 85% 29.92 in 2.0 mi NNW 31.1 mph 42.6 mph 0.00 in Snow Light Snow
9:16 AM 12.2 °F -9.6 °F 8.6 °F 85% 29.94 in 1.2 mi NNW 31.1 mph 41.4 mph 0.00 in Snow Light Snow
9:27 AM 12.2 °F -10.5 °F 8.6 °F 85% 29.93 in 3.0 mi North 34.5 mph 40.3 mph 0.00 in Snow Light Snow
9:38 AM 12.2 °F -9.6 °F 8.6 °F 85% 29.93 in 1.8 mi North 31.1 mph 41.4 mph 0.00 in Snow Light Snow
9:55 AM 12.0 °F -9.5 °F 9.0 °F 88% 30.01 in 0.5 mi North 29.9 mph 42.6 mph 0.00 in Fog , Snow Snow
10:05 AM 12.2 °F -10.5 °F 8.6 °F 85% 29.94 in 2.0 mi North 34.5 mph 42.6 mph 0.00 in Snow Light Snow
10:30 AM 12.2 °F -10.8 °F 8.6 °F 85% 29.96 in 1.5 mi North 35.7 mph 43.7 mph 0.00 in Snow Light Snow
10:55 AM 12.9 °F -8.9 °F 9.0 °F 84% 30.05 in 1.0 mi North 32.2 mph 41.4 mph 0.00 in Snow Light Snow
11:36 AM 12.2 °F -10.2 °F 8.6 °F 85% 29.95 in 1.8 mi North 33.4 mph 41.4 mph 0.00 in Snow Light Snow
11:43 AM 12.2 °F -7.9 °F 8.6 °F 85% 29.95 in 2.5 mi North 25.3 mph 41.4 mph 0.00 in Snow Light Snow
11:55 AM 12.9 °F -6.9 °F 9.0 °F 84% 30.08 in 2.0 mi NNW 25.3 mph 35.7 mph 0.00 in Snow Light Snow
12:00 PM 12.2 °F -7.9 °F 8.6 °F 85% 29.97 in 0.8 mi NNW 25.3 mph 36.8 mph 0.00 in Snow Light Snow
12:20 PM 12.2 °F -9.3 °F 6.8 °F 79% 29.97 in 1.8 mi NNW 29.9 mph 39.1 mph 0.00 in Snow Light Snow
12:32 PM 12.2 °F -9.3 °F 6.8 °F 79% 29.96 in 2.0 mi North 29.9 mph 38.0 mph 0.00 in Snow Light Snow
12:41 PM 12.2 °F -10.2 °F 6.8 °F 79% 29.97 in 1.2 mi North 33.4 mph 38.0 mph 0.00 in Snow Light Snow
12:48 PM 10.4 °F -11.0 °F 8.6 °F 92% 29.97 in 1.2 mi North 27.6 mph 38.0 mph 0.00 in Snow Light Snow
12:55 PM 10.9 °F -11.0 °F 8.1 °F 88% 30.10 in 0.5 mi North 29.9 mph 38.0 mph 0.00 in Fog , Snow Snow
1:10 PM 12.2 °F -7.5 °F 8.6 °F 85% 29.95 in 0.2 mi North 24.2 mph 38.0 mph 0.01 in Fog , Snow Snow
1:55 PM 12.9 °F -8.6 °F 10.0 °F 88% 30.11 in 0.5 mi NNW 31.1 mph 41.4 mph 0.01 in Fog , Snow Snow
2:10 PM 15.8 °F -6.1 °F 10.4 °F 79% 29.93 in 0.5 mi North 36.8 mph 46.0 mph 0.00 in Snow Snow
2:31 PM 15.8 °F -5.8 °F 8.6 °F 73% 29.93 in 1.0 mi North 35.7 mph 43.7 mph 0.00 in Snow Light Snow
2:55 PM 14.0 °F -7.7 °F 9.0 °F 80% 30.08 in 1.0 mi North 33.4 mph 44.9 mph 0.00 in Snow Blowing Snow
3:17 PM 12.2 °F -7.9 °F 8.6 °F 85% 29.98 in 0.8 mi NNW 25.3 mph 41.4 mph 0.00 in Snow Light Snow
3:25 PM 12.2 °F -8.6 °F 8.6 °F 85% 29.99 in 1.0 mi NNW 27.6 mph 39.1 mph 0.00 in Snow Light Snow
3:30 PM 12.2 °F -9.3 °F 8.6 °F 85% 29.99 in 0.2 mi NNW 29.9 mph 40.3 mph 0.00 in Fog , Snow Heavy Snow
3:46 PM 14.0 °F -7.4 °F 10.4 °F 86% 29.97 in 0.5 mi North 32.2 mph 38.0 mph 0.01 in Fog , Snow Snow
3:55 PM 12.9 °F -9.5 °F 9.0 °F 84% 30.12 in 0.5 mi North 34.5 mph 39.1 mph 0.01 in Fog , Snow Snow
4:01 PM 12.2 °F -9.6 °F 8.6 °F 85% 29.98 in 0.5 mi North 31.1 mph 38.0 mph 0.00 in Fog , Snow Snow
4:13 PM 12.2 °F -8.6 °F 8.6 °F 85% 29.98 in 0.8 mi North 27.6 mph 39.1 mph 0.00 in Snow Light Snow
4:21 PM 12.2 °F -8.9 °F 8.6 °F 85% 29.98 in 0.8 mi North 28.8 mph 38.0 mph 0.00 in Snow Light Snow
4:26 PM 12.2 °F -9.3 °F 8.6 °F 85% 29.99 in 1.2 mi North 29.9 mph 38.0 mph 0.00 in Snow Light Snow
4:40 PM 12.2 °F -9.6 °F 8.6 °F 85% 30.00 in 0.8 mi North 31.1 mph 39.1 mph 0.00 in Snow Light Snow
4:47 PM 12.2 °F -8.6 °F 8.6 °F 85% 30.00 in 1.0 mi North 27.6 mph 38.0 mph 0.00 in Snow Light Snow
4:55 PM 10.9 °F -9.6 °F 7.0 °F 84% 30.19 in 1.2 mi North 25.3 mph 36.8 mph 0.00 in Snow Light Snow
5:10 PM 12.2 °F -8.9 °F 8.6 °F 85% 30.01 in 0.5 mi North 28.8 mph 36.8 mph 0.00 in Fog , Snow Snow
5:32 PM 12.2 °F -8.6 °F 8.6 °F 85% 30.01 in 0.2 mi NNW 27.6 mph 38.0 mph 0.00 in Fog , Snow Light Snow
5:36 PM 12.2 °F -8.6 °F 8.6 °F 85% 30.01 in 0.5 mi North 27.6 mph 39.1 mph 0.00 in Fog , Snow Light Snow
5:48 PM 12.2 °F -8.9 °F 8.6 °F 85% 30.01 in 1.0 mi North 28.8 mph 38.0 mph 0.00 in Snow Light Snow
5:55 PM 12.0 °F -8.8 °F 8.1 °F 84% 30.20 in 0.8 mi North 27.6 mph 36.8 mph 0.00 in Snow Light Snow
6:00 PM 12.2 °F -8.6 °F 8.6 °F 85% 30.02 in 0.5 mi NNW 27.6 mph 39.1 mph 0.00 in Fog , Snow Snow
6:15 PM 12.2 °F -7.5 °F 8.6 °F 85% 30.03 in 1.5 mi North 24.2 mph 35.7 mph 0.00 in Snow Light Snow
6:24 PM 12.2 °F -9.6 °F 8.6 °F 85% 30.03 in 0.5 mi North 31.1 mph 38.0 mph 0.00 in Fog , Snow Snow
6:37 PM 12.2 °F -8.9 °F 8.6 °F 85% 30.04 in 1.0 mi North 28.8 mph 38.0 mph 0.00 in Snow Light Snow
6:42 PM 10.4 °F -10.7 °F 6.8 °F 85% 30.04 in 0.5 mi North 26.5 mph 39.1 mph 0.00 in Fog , Snow Snow
6:55 PM 10.9 °F -9.6 °F 7.0 °F 84% 30.25 in 1.5 mi NNW 25.3 mph 38.0 mph 0.00 in Snow Light Snow
7:55 PM 10.0 °F -12.5 °F 6.1 °F 84% 30.25 in 2.0 mi NNW 31.1 mph 42.6 mph 0.00 in Snow Light Snow
8:20 PM 10.4 °F -11.7 °F 6.8 °F 85% 30.05 in 1.8 mi NNW 29.9 mph 40.3 mph 0.00 in Snow Light Snow
8:43 PM 10.4 °F -11.0 °F 6.8 °F 85% 30.06 in 1.2 mi NNW 27.6 mph 40.3 mph 0.00 in Snow Light Snow
8:55 PM 10.0 °F -11.1 °F 7.0 °F 87% 30.28 in 1.2 mi NNW 26.5 mph 40.3 mph 0.00 in Snow Light Snow
9:02 PM 10.4 °F -10.7 °F 6.8 °F 85% 30.08 in 1.2 mi NNW 26.5 mph 36.8 mph 0.00 in Snow Light Snow
9:50 PM 8.6 °F -11.0 °F 6.8 °F 92% 30.08 in 1.2 mi North 20.7 mph 38.0 mph 0.00 in Snow Light Snow
9:55 PM 9.0 °F -11.4 °F 6.1 °F 88% 30.29 in 2.0 mi North 23.0 mph 36.8 mph 0.00 in Snow Light Snow
10:45 PM 8.6 °F -11.9 °F 6.8 °F 92% 30.07 in 1.8 mi NNW 23.0 mph 34.5 mph 0.00 in Snow Light Snow
10:55 PM 9.0 °F -13.7 °F 6.1 °F 88% 30.25 in 1.2 mi NNW 29.9 mph 41.4 mph 0.00 in Snow Light Snow
11:46 PM 8.6 °F -13.1 °F 5.0 °F 85% 30.06 in 1.2 mi North 26.5 mph 35.7 mph 0.00 in Snow Light Snow
11:55 PM 8.1 °F -12.2 °F 5.0 °F 87% 30.27 in 1.5 mi North 21.9 mph 35.7 mph 0.00 in Snow Light Snow